GFSSW_850_temp_000.txt.gz
Temp
18 18 18 18 19 19 19 19 19 20 20 20 20 20 20 20 20 20 20 20 21 21 20 20 20 19 18 19 19 19 18 19 22 24 24 21 21 20 21 20 20 19 19 19 18
18 18 18 18 18 19 19 19 19 19 20 20 20 20 20 20 20 21 21 21 21 21 20 20 19 19 19 20 20 19 18 22 24 23 23 23 21 22 19 19 19 19 18 18 17
18 18 18 18 18 18 19 19 19 19 19 20 20 20 20 20 20 21 22 21 21 21 20 20 20 20 20 21 21 21 19 23 23 23 22 22 21 21 21 17 21 20 19 19 18
17 17 18 18 18 18 19 19 19 19 19 19 20 20 20 19 19 21 21 21 21 21 20 20 19 20 20 20 22 19 21 22 22 21 20 19 21 21 21 20 22 21 21 20 19
17 17 17 18 18 18 18 19 19 19 19 20 20 20 20 19 20 21 21 21 20 20 20 19 19 21 20 22 22 19 20 21 22 21 19 19 19 18 20 20 21 21 20 20 19
16 17 17 17 18 18 18 18 19 19 19 20 20 20 19 18 21 21 21 20 20 20 20 20 20 20 20 21 20 19 19 19 20 21 19 17 17 19 19 21 20 20 20 19 18
16 17 17 17 17 18 18 18 18 19 19 19 19 19 19 20 21 21 21 20 20 19 19 19 19 19 20 19 19 19 16 17 19 20 18 19 15 15 21 20 21 20 20 20 19
16 16 17 17 17 18 18 18 18 18 19 19 19 18 18 20 20 21 20 19 19 19 18 19 19 19 18 18 19 17 18 17 21 20 17 17 15 18 22 21 20 20 19 19 19
16 16 16 17 17 17 18 18 18 18 18 19 18 17 18 19 19 19 18 18 18 18 18 18 18 18 16 16 16 17 16 17 19 19 16 14 15 18 23 23 21 20 20 20 19
15 15 16 16 16 17 18 18 18 18 18 17 17 16 18 19 19 19 18 17 17 17 17 17 17 16 15 16 16 19 18 19 18 18 16 14 14 16 20 19 20 20 20 20 20
14 14 15 15 16 16 17 17 18 17 15 19 19 19 19 19 18 18 17 16 15 16 15 16 15 15 17 18 19 19 18 18 20 20 16 16 16 17 19 20 19 20 20 20 20
11 12 13 14 15 15 15 15 14 13 12 18 19 18 18 19 17 18 17 15 15 14 16 15 14 17 18 18 18 16 16 17 19 19 16 15 15 16 16 17 19 19 19 19 19
11 12 12 13 14 14 13 14 14 13 11 16 18 17 17 18 16 18 17 15 14 14 16 16 17 17 17 17 17 16 15 16 17 17 14 14 13 14 15 17 18 19 20 18 19
10 10 12 12 12 12 12 12 13 12 11 16 15 14 15 15 14 14 15 15 15 15 15 16 18 18 16 16 17 16 18 16 16 15 13 16 15 16 17 17 15 18 20 19 19
9 9 9 11 10 11 11 12 12 13 12 16 13 12 12 13 12 11 12 12 14 14 15 16 15 15 14 16 16 16 14 15 15 13 13 14 12 15 16 16 16 17 21 20 20
10 9 9 9 9 10 11 11 12 13 12 16 13 12 12 11 11 10 10 11 12 13 13 14 13 14 15 12 13 13 14 14 14 12 11 13 14 15 15 16 17 16 21 22 21
9 9 8 8 8 9 10 10 11 12 17 16 15 13 13 13 12 10 10 9 11 12 12 14 13 13 13 13 12 12 13 9 10 9 14 15 13 18 19 17 17 16 21 21 20
9 9 9 8 8 8 8 8 10 15 16 17 15 14 14 15 13 11 12 11 11 12 14 15 16 12 11 13 14 10 13 9 10 14 16 9 12 16 17 18 21 22 22 20 20
9 9 8 9 8 7 5 5 10 15 17 17 17 15 14 14 15 13 11 14 14 12 14 14 16 11 11 14 14 12 11 14 10 7 9 16 16 17 17 16 16 16 18 18 17
9 8 8 8 8 6 4 6 8 14 14 15 14 16 16 16 13 13 14 16 15 13 15 16 15 14 10 11 11 12 12 11 10 9 8 15 15 17 18 19 15 14 14 17 17
8 7 8 9 7 4 4 5 10 12 13 12 12 12 13 14 16 15 15 17 18 17 13 15 14 14 9 9 12 9 10 11 13 10 10 13 16 18 17 17 14 14 17 18 17
6 7 7 7 5 4 5 7 10 11 12 10 8 8 8 9 10 11 13 15 13 14 12 12 12 10 14 14 12 13 12 13 13 13 9 14 15 18 16 14 14 15 19 20 20
5 6 6 6 7 6 6 8 9 10 10 11 10 9 10 10 8 8 11 14 13 12 8 9 9 8 10 12 10 11 12 13 13 13 13 12 14 18 18 17 16 15 17 18 18
4 6 4 4 5 6 7 6 7 9 9 9 10 10 8 8 9 9 9 10 11 12 10 9 7 8 9 11 12 11 11 11 12 11 12 12 13 15 16 17 17 17 18 18 17
3 5 6 4 4 5 7 6 7 7 9 10 9 9 9 8 9 9 9 9 9 9 8 7 5 5 8 9 9 8 10 11 11 11 10 13 13 15 16 16 16 17 17 16 16
2 4 3 4 6 5 5 5 6 8 8 9 8 9 9 9 9 10 8 9 9 8 8 6 6 4 5 6 7 7 9 10 9 10 11 12 12 14 15 15 15 15 15 15 15
0 1 0 3 4 4 5 6 5 5 5 6 7 8 8 9 10 10 11 11 10 9 6 4 5 5 6 7 6 6 6 8 9 10 11 10 12 14 14 14 15 15 15 15 15

GFSSW_850_temp_003.txt.gz
Temp
17 18 18 18 18 18 19 19 19 19 19 20 20 20 20 20 20 20 21 21 21 20 20 20 19 19 18 18 19 19 14 15 18 21 22 21 20 21 21 21 20 20 20 20 21
17 17 18 18 18 18 18 19 19 19 19 20 20 20 20 20 20 21 22 21 21 21 20 20 19 19 18 19 19 17 13 17 20 21 21 21 20 20 20 19 19 20 20 20 19
17 17 17 18 18 18 18 18 19 19 19 20 20 20 20 20 20 21 21 21 21 21 20 20 19 19 19 20 19 18 15 18 21 22 21 21 20 21 19 15 19 21 21 20 20
17 17 17 17 18 18 18 18 19 19 19 19 19 20 20 20 19 21 21 21 20 20 20 20 20 19 19 18 21 18 19 20 20 21 21 19 20 20 20 21 21 22 21 21 21
16 17 17 17 17 18 18 18 18 19 19 19 19 19 19 19 21 22 21 21 20 20 20 20 19 19 18 19 20 18 18 20 20 20 20 20 18 16 18 20 21 21 21 20 20
16 16 16 17 17 17 18 18 18 19 19 19 19 19 18 17 21 21 21 21 20 20 20 20 20 19 19 19 18 19 18 17 19 20 19 18 16 18 20 21 21 20 20 20 20
16 16 16 16 17 17 17 18 18 18 19 19 18 18 18 20 21 21 21 20 20 20 19 19 19 19 19 18 18 18 16 15 18 19 16 18 15 14 23 20 20 21 21 21 20
15 15 16 16 17 17 18 18 18 18 18 18 18 18 18 20 20 21 21 19 19 19 18 18 18 18 18 18 18 17 16 15 17 15 18 18 16 16 22 20 20 20 21 21 21
14 15 15 16 16 17 18 18 19 19 18 18 17 16 18 19 19 19 19 19 18 18 18 17 18 18 17 14 13 13 14 13 15 17 14 14 14 15 20 20 20 21 20 21 21
12 13 14 15 16 17 18 18 18 19 18 17 15 15 17 19 19 19 19 18 17 17 16 16 17 13 11 11 13 13 13 14 14 16 15 12 14 16 19 18 18 20 21 21 20
11 12 13 14 15 16 17 18 18 17 15 18 17 17 19 18 18 19 18 16 15 16 13 15 12 12 15 13 15 15 14 13 16 17 15 16 15 16 16 15 15 18 20 20 20
10 11 12 12 13 14 15 14 13 12 11 17 18 17 18 18 18 18 16 15 14 12 13 13 12 15 15 13 14 14 14 14 16 15 14 14 15 15 13 15 17 17 18 19 18
10 10 11 11 12 12 12 12 11 10 8 14 17 18 18 18 16 17 16 15 12 12 12 15 14 14 14 14 14 15 14 15 15 15 13 13 13 13 13 14 17 18 19 19 18
10 10 10 11 11 11 11 11 11 10 8 11 14 15 14 15 14 14 14 15 13 13 12 12 15 15 13 14 15 16 14 15 13 14 14 13 15 14 14 13 13 16 21 19 20
10 9 9 9 10 11 10 11 11 12 9 13 13 13 13 14 12 12 12 12 12 13 13 14 16 12 13 15 14 15 14 14 14 12 11 13 11 16 14 14 15 16 19 21 21
11 9 9 9 9 10 11 11 11 10 8 14 12 11 11 11 11 10 11 11 11 12 12 11 13 14 13 12 13 13 13 13 12 9 11 11 13 15 13 15 15 16 20 23 23
10 9 9 8 8 9 10 11 10 9 13 14 14 11 11 11 10 9 9 9 10 12 10 12 11 11 13 13 11 12 11 8 9 7 12 13 10 17 16 15 15 16 21 24 24
9 9 9 8 8 8 8 6 7 10 12 15 14 12 12 12 11 9 9 8 8 10 10 12 15 10 10 13 12 9 11 8 10 12 15 6 11 15 15 16 18 21 23 23 20
9 9 9 9 8 8 7 6 8 9 13 13 13 12 12 12 12 10 8 8 10 10 12 11 13 12 9 11 12 11 10 13 9 1 7 15 14 15 15 14 13 15 15 18 20
8 8 7 8 8 6 5 9 8 10 12 13 12 10 10 12 11 11 10 11 12 10 14 14 13 13 11 11 12 11 11 10 8 10 8 14 13 16 16 18 16 13 11 16 18
6 7 7 9 7 5 6 7 9 10 11 11 11 11 10 10 11 11 9 11 13 12 11 10 12 13 10 9 11 9 10 10 11 9 13 13 15 17 16 17 16 13 13 15 17
5 6 6 7 5 5 7 7 10 9 11 10 9 9 10 11 11 11 10 11 14 11 10 9 9 8 10 11 10 11 11 12 12 11 8 11 14 17 13 15 11 14 17 19 19
5 6 5 6 6 7 6 7 9 8 9 9 9 9 10 9 8 9 9 11 12 11 8 8 5 6 7 11 10 11 10 11 12 8 10 9 11 16 16 15 14 14 17 17 17
3 4 4 4 5 6 8 8 8 9 8 8 8 9 8 8 9 9 9 9 10 10 11 9 5 6 9 11 11 9 9 9 11 10 12 11 12 14 14 15 16 16 17 17 17
2 3 4 4 5 5 6 7 7 8 9 9 8 8 8 8 8 9 9 9 9 9 8 9 6 6 7 8 9 9 8 10 9 10 10 11 11 12 13 14 15 16 16 16 16
0 2 2 3 5 5 5 6 6 6 6 6 6 7 8 7 7 7 7 8 9 9 9 9 7 8 7 6 6 6 9 9 9 9 10 10 11 13 14 14 14 14 15 14 15
-1 -0 -0 2 1 3 4 6 6 5 5 5 2 2 3 4 2 2 2 3 4 5 6 7 5 6 7 7 7 7 7 8 9 9 9 9 11 13 13 13 13 14 14 14 14

GFSSW_850_temp_006.txt.gz
Temp
18 18 18 18 18 19 19 19 19 19 19 19 20 20 20 20 20 20 21 21 21 20 20 20 19 19 18 18 18 18 13 13 16 19 19 20 19 21 21 20 19 20 20 20 21
17 17 18 18 18 18 19 19 19 19 19 19 20 20 20 20 20 21 22 21 21 20 20 20 19 19 18 18 18 16 12 15 16 20 19 20 19 21 19 19 19 20 20 20 20
16 17 17 17 18 18 18 18 19 19 19 19 19 19 20 20 20 22 21 21 20 20 20 20 19 18 18 18 18 16 14 15 19 21 21 20 19 20 18 15 19 21 22 21 20
16 17 17 17 17 17 18 18 18 19 19 19 19 19 20 20 18 22 22 22 21 20 19 19 19 18 17 16 19 16 17 18 20 21 19 18 20 18 19 21 21 22 21 21 20
16 16 16 17 17 17 17 18 18 18 18 18 18 19 19 19 21 22 21 21 21 20 19 19 19 19 17 17 18 15 16 19 19 19 19 19 18 17 19 21 21 21 20 20 21
16 16 16 17 17 17 18 18 18 18 18 18 18 18 18 16 21 21 21 21 21 20 20 19 19 20 18 17 17 17 18 17 18 19 19 17 16 18 20 21 21 21 21 20 20
15 15 16 16 17 17 18 18 18 18 18 18 18 18 17 19 20 21 21 21 20 20 19 19 19 19 18 17 18 17 16 14 17 18 16 16 14 13 23 21 21 20 21 21 22
15 15 15 16 16 17 17 18 18 18 19 18 18 17 17 20 20 20 20 20 19 18 18 18 18 18 18 17 16 16 15 14 16 14 17 17 16 16 23 19 20 22 23 23 23
13 14 14 15 15 16 17 17 18 18 18 18 17 16 17 19 19 19 19 18 18 17 17 16 17 17 16 13 13 12 13 11 13 15 14 14 14 15 20 19 20 22 23 23 23
12 12 13 13 14 16 16 17 18 18 18 16 15 15 17 19 18 19 18 17 16 16 15 15 16 13 10 11 12 12 11 12 14 15 13 12 13 16 19 17 18 20 21 22 22
11 12 12 13 13 14 16 17 16 16 15 17 17 18 18 18 18 18 17 16 14 15 12 14 11 11 15 11 15 14 12 12 14 16 14 13 14 15 17 16 14 16 18 19 21
11 11 12 12 12 13 14 14 12 11 10 16 17 16 18 18 17 18 16 15 14 12 12 12 10 13 14 13 12 12 13 14 15 14 12 14 14 16 14 16 17 17 18 19 21
11 11 11 11 12 12 12 11 11 10 7 13 16 15 16 16 14 16 15 14 12 11 11 14 14 12 13 13 13 12 12 14 13 14 12 11 13 12 13 15 16 16 18 19 21
10 10 11 11 11 11 11 11 11 9 7 10 13 14 13 14 14 14 14 15 12 12 10 10 13 13 11 12 13 14 13 13 12 12 13 13 14 14 14 13 13 15 18 19 22
11 10 10 11 11 11 11 11 12 10 9 13 13 12 13 13 12 11 11 12 11 12 12 13 14 12 11 14 12 14 14 13 13 10 10 10 10 15 13 13 14 16 19 22 23
10 10 10 10 10 10 10 11 11 11 9 13 12 11 11 11 11 10 11 12 11 11 10 10 12 12 12 12 11 12 13 11 8 9 11 12 11 15 12 14 15 15 19 22 24
10 9 9 9 9 9 9 10 10 10 12 14 13 11 11 12 11 9 9 9 10 12 11 11 10 11 12 13 11 12 11 8 8 6 10 12 9 17 16 16 14 16 20 23 23
9 9 9 9 9 9 8 9 9 11 11 13 12 11 12 11 11 9 8 8 8 10 9 11 13 11 10 12 11 10 12 11 9 11 15 6 10 14 14 15 18 17 18 19 19
8 8 8 9 8 8 8 8 10 10 12 12 12 12 10 11 12 10 8 8 9 9 12 10 12 11 10 11 12 10 9 12 9 -0 5 14 13 15 15 14 14 15 16 16 19
6 7 7 8 8 7 6 9 9 10 11 12 11 11 9 11 11 10 9 9 10 8 11 12 11 12 11 11 11 10 11 9 7 9 8 11 12 15 14 15 12 12 14 16 15
5 6 7 8 7 5 6 7 10 10 11 10 10 11 9 10 11 11 10 10 10 11 11 10 9 10 10 9 11 9 10 10 10 8 13 12 13 13 13 13 12 13 17 17 14
4 5 6 7 5 5 7 8 9 9 10 10 9 9 10 10 10 11 10 10 12 11 10 9 8 7 9 10 8 9 11 12 12 10 8 10 12 14 15 14 14 14 17 18 16
4 5 5 6 6 6 7 7 8 8 8 9 9 8 10 9 8 10 10 11 12 11 9 9 7 9 8 8 8 8 10 11 11 10 11 10 10 15 15 14 14 13 15 16 18
2 4 4 4 5 6 7 7 7 8 8 8 8 9 8 8 9 8 9 8 10 10 11 9 8 9 9 11 10 9 8 8 11 11 11 11 12 14 14 14 15 15 15 14 15
0 2 3 4 4 5 6 6 7 7 8 8 8 7 7 7 7 7 8 6 8 8 8 8 7 6 7 9 10 10 10 11 10 11 10 12 12 13 14 14 14 15 15 14 14
-1 0 1 2 2 4 4 5 5 6 7 6 6 7 6 4 4 5 3 3 3 3 3 4 6 6 7 7 6 7 9 9 10 10 10 10 10 13 13 13 13 13 14 14 13
-2 -1 -1 1 -0 1 3 4 5 4 3 4 4 2 3 3 2 2 1 1 2 2 3 3 4 5 6 5 5 5 7 6 8 9 9 8 10 7 6 7 10 10 3 2 2

GFSSW_850_temp_009.txt.gz
Temp
17 17 18 18 17 18 18 18 18 18 19 19 19 19 20 20 20 20 21 21 21 20 20 20 19 18 18 18 18 18 13 12 15 16 19 19 19 20 20 19 19 20 21 21 20
17 17 17 18 18 18 18 18 18 18 19 19 19 19 19 20 20 21 21 21 21 20 20 20 19 18 18 18 17 16 11 14 15 17 19 19 19 20 19 19 18 20 20 21 20
17 17 17 18 18 18 18 18 18 18 18 19 19 19 19 19 20 22 22 21 21 20 19 19 18 18 17 17 17 14 13 14 18 19 19 19 18 20 17 15 19 20 22 21 20
17 17 17 17 17 18 18 18 18 18 18 18 19 19 19 19 18 21 21 21 21 20 19 19 18 17 16 15 18 15 16 17 19 20 19 17 19 17 18 20 21 21 21 21 21
17 17 17 17 18 18 18 18 18 18 18 18 18 18 18 18 20 21 21 21 20 20 20 19 18 18 15 15 17 14 15 18 19 18 18 18 16 15 18 21 21 20 20 20 20
16 16 16 17 17 18 18 18 18 18 18 18 18 18 18 15 20 21 21 20 20 20 19 18 18 19 17 17 15 16 16 16 17 17 18 16 17 16 20 22 22 21 22 21 20
15 15 16 16 16 17 17 18 18 18 18 18 18 17 17 19 20 20 20 20 20 19 18 18 18 18 17 16 17 17 14 13 14 16 14 16 13 12 23 21 22 23 23 23 22
14 15 15 16 16 16 17 17 18 18 18 18 17 17 16 19 20 20 20 20 18 17 17 17 17 17 17 16 15 14 14 13 16 13 16 16 15 19 22 20 22 23 23 23 23
13 14 14 15 15 16 16 17 17 18 17 17 17 16 16 19 19 19 19 18 17 17 16 16 16 16 17 12 12 11 11 11 12 14 15 13 14 15 19 20 20 21 22 22 22
12 12 13 13 14 15 16 17 17 17 17 16 15 14 17 19 19 19 18 16 15 15 15 15 15 12 9 10 12 11 10 10 12 16 11 12 11 13 20 15 17 18 19 20 21
11 11 12 12 13 14 15 16 15 15 14 17 17 17 19 19 18 18 17 15 14 15 11 13 10 11 14 11 14 13 11 10 12 14 13 12 13 14 16 16 16 16 16 17 19
10 11 11 12 12 13 13 14 12 11 11 16 17 15 18 16 16 15 14 15 14 11 11 10 9 12 13 12 11 10 11 12 14 14 12 12 13 13 13 14 16 17 17 17 18
10 10 11 11 12 12 12 11 11 10 7 14 15 13 15 14 14 15 14 14 12 10 10 13 13 11 11 11 12 10 11 13 13 12 10 10 13 13 12 13 15 17 17 18 19
11 11 11 11 11 11 12 11 12 9 7 10 12 13 13 14 13 12 12 13 12 11 10 10 12 12 10 10 11 13 11 12 11 11 12 13 14 15 15 15 14 15 17 18 21
10 10 10 10 11 11 10 11 12 11 10 13 12 12 12 13 11 11 11 12 11 11 11 12 12 11 10 12 10 12 13 11 11 9 9 10 8 14 13 14 13 13 17 22 22
9 10 9 9 9 10 10 10 11 10 11 12 12 11 11 11 11 10 10 11 11 10 9 9 11 11 11 11 9 12 12 10 6 8 9 10 11 14 12 14 15 14 20 21 20
9 8 9 8 9 9 9 10 9 10 12 13 13 11 11 11 10 9 9 9 10 12 10 11 10 10 12 12 10 12 10 8 8 6 10 10 9 17 16 17 13 16 17 19 19
8 8 8 8 8 8 9 8 8 10 10 12 12 11 11 10 11 9 8 9 8 10 9 10 13 10 9 11 11 8 9 7 7 9 14 6 10 16 15 14 15 16 16 16 19
7 8 7 7 8 8 8 8 10 11 10 12 11 11 10 10 11 10 7 8 10 9 11 9 10 10 9 10 12 9 9 12 9 2 5 13 12 14 12 15 15 13 14 16 18
6 6 6 7 7 7 7 8 9 10 11 11 10 11 9 10 11 10 10 9 10 8 10 12 10 11 9 10 10 10 10 9 6 8 9 11 13 14 14 16 14 11 13 17 18
5 5 6 7 7 6 6 8 9 10 11 10 10 10 9 9 10 10 10 10 9 10 9 9 8 10 10 9 11 8 8 9 9 8 11 11 11 15 14 12 12 11 14 16 16
3 4 6 6 5 5 6 8 9 9 10 10 9 10 10 10 10 10 9 10 12 10 9 8 7 7 8 8 8 8 9 9 8 10 10 12 12 15 15 14 11 12 13 14 15
3 4 5 5 6 6 7 7 8 8 8 8 8 8 9 8 8 9 10 11 11 9 8 8 7 8 7 7 5 5 8 8 10 9 9 9 11 14 15 15 15 13 14 14 15
1 2 3 4 5 5 7 7 7 8 7 8 8 8 8 7 8 7 7 8 8 8 8 7 7 7 7 7 9 8 8 9 9 8 9 10 11 12 13 14 14 15 12 9 5
0 1 2 1 4 4 5 5 5 6 7 8 7 7 7 6 5 5 6 5 4 5 4 6 6 6 6 6 6 6 6 6 8 10 9 10 10 11 12 12 7 6 3 1 0
-1 -1 -0 -1 2 2 4 5 4 5 6 6 6 6 6 5 5 4 2 3 3 3 3 4 3 5 5 5 6 5 5 5 5 5 5 6 7 6 -1 -2 0 -1 -0 -0 -0
-2 -2 -2 0 -1 0 2 3 4 3 4 4 2 2 3 2 -1 -1 -0 1 2 2 1 2 3 2 3 4 4 3 5 6 8 7 4 3 -1 -2 -2 -2 -2 -3 -2 -1 -1

GFSSW_850_temp_012.txt.gz
Temp
17 17 18 18 18 18 18 18 18 18 18 19 19 19 19 19 20 20 21 21 21 20 20 19 19 18 18 18 17 17 12 12 14 14 17 18 18 19 20 19 19 20 21 21 21
17 17 17 18 18 18 18 18 18 18 18 18 19 19 19 19 20 21 21 21 21 20 20 20 19 18 18 17 17 15 11 13 14 14 17 18 18 19 19 19 18 20 21 21 21
17 17 17 17 18 18 18 18 18 18 18 19 19 19 19 19 20 21 21 21 21 20 19 19 19 18 17 17 16 14 13 13 16 18 18 17 17 19 17 14 19 20 21 21 21
16 17 17 17 17 18 18 18 18 18 18 18 18 18 18 18 17 21 21 20 20 20 19 18 17 17 15 15 16 15 15 16 17 19 18 17 18 16 17 20 21 21 20 20 20
16 16 17 17 17 17 18 18 18 18 18 18 18 18 18 17 19 21 20 20 20 19 18 18 17 17 15 14 15 13 14 17 18 17 17 18 16 14 16 21 22 20 20 20 20
16 16 16 16 17 17 17 17 18 18 18 18 18 18 17 15 20 20 20 20 20 19 19 18 17 18 17 16 14 15 15 15 16 17 17 15 17 16 19 22 22 21 22 22 21
15 15 15 15 16 16 16 17 17 18 18 18 18 17 17 19 20 20 20 19 19 19 18 18 17 17 17 15 15 16 14 12 12 15 12 14 13 11 22 21 22 23 23 23 23
13 14 14 15 15 15 16 16 17 17 17 17 17 17 17 19 19 20 20 19 18 17 17 16 16 16 16 15 15 14 13 13 15 12 15 16 14 17 20 19 20 22 22 22 23
12 12 13 13 14 15 15 16 17 17 17 17 17 16 17 19 18 19 18 18 17 16 16 15 15 16 15 11 11 10 11 10 11 13 13 12 12 14 19 18 18 20 20 20 21
12 12 12 12 13 14 14 15 16 16 16 15 15 15 17 18 18 18 18 16 15 15 14 14 14 11 8 10 11 11 9 9 10 14 11 11 11 13 17 16 14 16 18 18 19
10 11 11 11 12 13 14 15 15 14 14 16 15 16 17 17 17 17 16 14 14 14 11 13 10 10 13 10 13 12 11 10 10 12 12 14 14 14 14 14 15 16 15 17 16
10 10 10 11 11 12 12 13 12 11 11 15 16 15 17 16 15 15 14 14 13 11 10 9 8 11 12 12 11 10 10 11 12 12 10 11 12 13 14 14 15 15 16 16 18
11 11 10 11 11 11 11 11 12 11 8 13 14 13 14 13 13 14 14 13 12 10 9 11 12 11 10 11 11 9 9 12 11 11 9 8 11 10 11 12 14 15 16 16 18
11 10 10 11 11 11 11 11 11 10 7 9 12 12 12 13 12 11 12 13 11 11 9 9 10 11 9 10 10 12 10 11 10 10 9 11 12 12 13 13 12 14 16 19 20
10 10 10 10 10 10 10 10 11 10 9 12 12 11 12 12 11 11 11 12 10 10 11 11 11 11 10 10 9 11 12 10 10 9 8 10 8 14 12 13 12 12 18 18 19
9 9 9 9 9 9 10 10 11 10 9 12 11 11 11 11 10 10 10 11 10 10 8 8 10 10 11 10 9 11 11 9 5 7 8 9 9 12 12 14 16 15 17 20 18
8 8 8 8 8 9 9 9 9 9 11 13 12 10 11 11 10 9 9 8 9 12 10 10 9 9 11 11 10 10 9 7 7 5 9 9 8 14 15 14 14 13 17 19 18
8 8 8 8 8 8 8 8 8 10 10 11 12 10 11 10 11 8 8 8 7 10 8 10 12 10 9 10 11 7 9 7 8 8 13 4 9 14 13 15 17 16 17 17 15
7 7 7 9 8 7 7 8 10 9 9 10 11 10 9 10 10 9 7 7 8 8 11 9 9 10 8 10 11 9 8 10 9 5 6 12 11 14 12 11 12 13 15 15 15
6 6 6 8 7 7 7 8 9 10 11 11 10 11 9 10 9 9 8 8 9 7 10 11 11 10 10 9 9 10 9 9 6 8 7 10 11 12 14 13 13 13 13 14 16
6 4 6 7 6 6 7 8 9 10 10 10 10 10 10 10 10 10 9 9 9 9 9 9 8 9 8 8 9 8 9 8 8 8 9 9 11 14 14 12 10 10 14 15 14
3 3 6 6 5 6 6 7 8 9 9 8 9 9 9 9 9 9 10 10 10 10 9 8 7 7 7 7 9 8 10 9 9 8 7 9 10 11 13 13 13 10 5 4 4
1 3 5 5 5 5 7 7 7 7 8 8 8 8 9 8 8 8 7 9 9 8 8 7 6 7 6 7 4 6 7 8 8 8 7 7 8 12 12 12 0 2 1 0 1
1 0 3 4 5 4 5 6 7 8 7 7 7 7 7 7 8 7 8 7 6 6 6 5 4 6 7 8 8 7 7 7 5 6 7 6 6 9 7 5 0 0 -0 -0 -0
-0 -0 0 3 2 4 4 5 4 5 7 7 6 6 6 5 5 5 5 5 5 4 4 4 5 6 6 5 4 3 3 5 5 6 5 6 6 4 -0 -2 -2 -2 -2 -2 -2
-1 -1 -0 -1 0 2 2 4 4 5 4 5 5 5 5 4 4 4 3 3 3 3 3 2 2 2 2 3 4 4 4 4 4 4 5 5 4 -1 -2 -2 -2 -3 -4 -3 -3
-2 -2 -2 -1 -1 -1 -1 1 2 1 2 1 0 1 2 1 -1 -1 -1 -1 0 -0 1 1 2 1 2 3 1 1 3 3 4 5 2 2 -2 -4 -3 -2 -1 -2 -3 -2 -3

GFSSW_850_temp_015.txt.gz
Temp
17 17 17 18 18 18 18 18 18 18 18 18 19 19 19 19 19 20 21 21 21 20 19 19 19 18 18 18 17 17 13 12 15 13 17 18 17 18 19 19 19 20 21 21 21
17 17 17 17 17 18 18 18 18 18 18 18 18 18 19 19 20 21 21 21 20 20 19 19 19 18 17 17 16 15 11 13 14 13 15 18 17 18 18 19 17 19 20 21 21
16 17 17 17 17 17 18 18 18 18 18 19 18 18 18 18 20 21 21 20 21 20 19 18 18 17 17 16 16 13 13 13 16 17 17 16 16 18 17 15 20 20 21 21 20
16 16 17 17 17 17 17 17 18 18 18 18 18 18 18 18 17 21 20 20 20 20 18 18 17 17 15 14 16 14 14 15 16 18 17 16 16 15 17 19 21 21 19 19 19
16 16 16 16 17 17 17 17 17 18 18 18 18 18 18 16 19 20 20 20 19 19 18 18 17 17 14 14 14 12 13 16 17 16 16 16 15 14 17 21 21 21 20 21 20
15 15 15 16 16 16 16 16 17 17 17 18 18 17 17 14 19 20 20 20 20 19 19 18 17 17 16 15 14 14 14 14 15 16 16 15 16 15 18 21 21 21 22 22 21
15 15 15 15 15 15 16 16 17 17 17 17 17 17 17 19 19 19 20 19 19 18 18 18 17 17 16 14 15 15 13 12 12 15 12 14 13 11 22 20 20 21 22 22 23
13 13 13 14 14 15 15 16 17 17 17 17 17 16 16 19 19 19 18 17 17 17 17 16 16 16 15 15 14 14 12 12 15 11 14 15 14 16 19 18 19 20 21 20 21
12 12 12 13 13 14 14 15 16 17 18 17 16 15 16 18 17 18 17 16 16 15 15 15 15 15 14 11 11 10 11 10 11 12 13 12 12 14 18 16 16 16 18 18 19
11 11 11 12 12 13 14 15 16 16 16 15 15 14 16 17 17 17 17 15 14 14 14 14 14 10 8 10 12 11 9 9 11 14 10 11 11 13 16 15 15 15 15 16 16
10 10 11 11 12 12 13 14 14 14 14 14 15 16 17 17 16 16 15 14 14 14 11 12 9 10 12 10 12 12 11 10 10 11 11 13 13 13 13 13 14 15 15 15 17
10 10 10 10 11 12 12 12 11 11 10 14 15 15 16 15 15 15 14 14 13 11 9 9 8 10 11 10 10 10 10 10 11 11 9 10 12 14 14 14 15 15 15 16 17
11 11 11 11 11 11 11 11 11 11 8 12 12 12 13 13 12 14 13 13 11 9 8 10 12 10 10 10 10 9 9 11 10 9 9 8 10 10 14 12 15 16 15 17 17
10 10 10 10 11 10 10 11 11 11 7 9 11 11 12 12 12 11 11 12 11 10 9 8 10 10 9 10 9 11 10 10 9 10 10 10 11 11 13 14 13 14 17 18 17
9 9 10 10 10 9 10 10 11 12 10 12 11 11 11 11 11 10 10 11 10 9 10 11 10 9 9 10 9 10 12 11 10 8 8 8 8 11 12 13 14 14 18 17 17
9 9 9 9 8 9 9 10 11 11 10 11 11 11 11 11 10 10 10 10 10 9 9 8 10 10 10 10 9 10 11 8 5 7 8 9 9 12 11 14 15 15 17 15 16
8 8 9 8 8 9 9 9 8 9 11 12 12 10 10 11 10 9 9 8 9 11 10 10 9 9 10 11 9 10 9 8 8 6 10 8 7 12 13 13 14 14 16 15 15
8 8 8 9 9 8 8 8 9 10 9 10 11 10 11 10 11 9 9 9 7 9 8 10 12 9 8 10 11 8 10 10 8 8 12 4 10 13 11 14 14 15 14 13 9
8 7 7 9 8 8 7 7 10 9 9 11 11 10 9 9 10 9 7 7 8 8 11 8 9 9 7 9 11 8 9 10 9 5 6 11 11 14 11 12 11 11 7 3 2
7 7 7 8 7 6 6 8 8 9 10 11 10 10 9 9 10 9 9 8 8 7 9 10 8 9 9 9 9 9 9 9 7 8 8 10 9 12 11 9 7 2 1 3 5
6 6 6 7 5 6 6 7 8 10 10 9 9 9 9 9 9 9 8 9 8 9 8 8 6 8 8 7 9 7 8 8 9 7 7 9 10 10 8 3 2 1 1 1 2
4 3 5 5 5 6 6 7 8 7 9 8 8 8 8 8 8 8 9 9 10 8 8 8 6 7 8 8 7 9 9 9 8 7 6 8 8 11 4 2 1 -0 -0 -0 -0
2 3 4 5 5 5 6 6 7 7 7 7 8 7 8 7 6 8 8 8 8 7 7 6 6 7 6 7 5 6 7 7 6 5 6 7 8 8 6 1 1 -1 -2 -2 -1
1 -0 2 3 4 4 5 5 5 7 6 7 6 7 5 6 6 6 5 7 6 6 6 5 5 6 7 8 6 5 5 5 5 6 7 7 7 8 4 -0 -1 -2 -3 -2 -1
-0 -1 1 -1 1 3 4 4 3 3 6 6 6 5 5 5 4 4 4 3 4 5 4 4 5 5 5 5 3 3 3 3 3 4 3 5 5 6 1 -2 -2 -2 -2 -2 -2
-1 -1 -0 -1 1 0 2 2 3 3 3 4 3 3 3 4 4 3 2 2 3 2 2 1 3 1 1 3 4 3 3 3 3 3 3 4 4 -1 -2 -2 -2 -1 -2 -2 -2
-2 -2 -2 -2 -2 -2 -2 1 -0 1 0 -1 -0 -0 -0 1 -1 -1 -1 -1 -1 -0 0 1 1 2 2 2 0 -1 1 3 3 4 3 2 -2 -5 -4 -2 -2 -2 -2 -2 -2

GFSSW_850_temp_021.txt.gz
Temp
17 17 17 17 17 17 18 18 18 18 18 18 18 19 19 19 20 20 20 20 20 20 19 19 19 18 18 18 18 18 22 23 24 23 25 23 23 22 21 21 23 22 21 22 21
17 17 17 17 17 17 17 18 18 18 18 18 18 18 19 19 20 21 20 20 20 20 19 19 18 17 20 19 19 20 22 24 25 25 24 24 23 22 22 23 23 24 23 21 20
16 17 17 17 17 17 18 18 18 18 18 18 18 18 18 19 19 20 20 20 20 20 19 17 18 18 19 19 20 21 21 24 24 23 22 22 22 22 21 22 23 24 24 23 22
16 16 17 17 17 17 18 18 18 18 18 18 18 18 18 18 21 20 20 20 19 19 19 17 18 19 20 20 21 19 21 21 21 21 19 20 21 21 21 21 22 22 22 21 21
16 16 16 16 16 17 17 17 17 17 18 18 18 18 18 17 19 20 19 19 19 18 17 17 18 19 20 21 20 19 20 21 20 20 19 18 19 20 20 21 21 21 21 21 20
15 15 15 15 15 16 16 17 17 17 18 18 18 17 17 18 19 19 19 19 18 18 17 17 19 19 19 20 20 21 19 19 19 19 19 18 19 20 21 22 22 21 21 22 21
14 14 14 14 15 15 15 16 16 17 17 18 18 17 16 18 18 19 19 18 18 18 16 16 16 17 18 19 19 17 18 20 21 21 21 18 19 20 21 22 21 21 21 22 22
13 13 14 13 14 14 15 15 16 16 17 17 17 17 16 17 18 17 17 17 16 16 16 16 16 16 17 18 18 18 19 18 22 19 19 17 19 22 21 20 20 21 21 21 21
12 12 13 13 13 13 14 15 15 16 17 17 17 16 18 17 17 17 17 15 15 15 15 15 15 17 17 17 18 20 19 20 21 22 19 17 19 21 20 20 19 20 20 20 20
12 12 12 12 13 13 14 15 15 16 16 16 15 15 17 16 16 16 16 15 14 14 14 14 16 17 18 19 18 20 21 21 20 22 21 20 19 20 20 20 20 20 20 20 19
11 11 12 12 12 12 13 14 15 15 14 16 16 16 16 16 15 15 14 14 13 15 17 15 17 17 20 20 20 19 19 19 20 20 19 19 18 19 20 20 20 21 21 21 19
11 11 11 11 11 12 12 12 12 11 12 14 15 15 14 14 14 13 13 14 14 16 16 15 16 18 19 19 16 17 17 18 19 20 19 18 17 18 19 20 21 20 20 19 17
11 11 11 11 11 12 11 12 12 11 11 14 12 11 12 12 13 14 13 14 15 16 15 16 18 18 17 17 17 18 17 18 17 18 17 17 17 20 20 21 21 20 17 14 13
11 10 11 10 11 11 11 11 11 11 14 16 13 11 11 11 13 11 11 13 15 16 17 16 17 15 15 15 17 16 18 16 16 15 16 17 15 18 20 21 20 18 15 12 10
9 9 10 10 10 10 11 11 11 11 14 15 13 11 11 12 12 11 11 12 14 16 15 17 14 14 15 16 16 17 14 15 15 15 15 17 16 19 21 19 18 15 12 9 8
9 10 10 9 10 10 10 10 11 13 13 15 13 13 13 12 12 10 11 11 11 14 14 15 13 14 16 16 15 14 14 15 15 15 14 18 17 18 19 18 17 13 10 9 7
9 9 9 9 9 10 10 10 13 12 15 15 14 14 14 14 14 13 14 13 15 15 16 17 15 14 13 14 14 13 14 14 15 15 15 17 15 17 18 18 16 12 9 7 6
8 8 9 9 9 9 10 12 9 12 15 13 13 13 14 15 15 14 14 15 16 14 14 15 15 14 14 14 15 15 15 14 12 14 15 15 15 17 18 13 11 9 8 6 5
7 8 8 9 8 8 9 9 11 14 15 15 14 14 15 15 13 14 15 15 15 15 14 14 15 16 13 14 13 15 13 15 12 11 11 14 16 18 17 12 10 9 7 6 5
6 6 7 8 8 8 9 9 12 13 12 13 13 15 14 14 13 14 14 13 12 12 12 12 11 14 12 12 12 13 12 12 12 9 10 13 14 16 16 14 10 8 6 5 4
5 6 7 7 7 6 7 10 11 11 10 12 12 13 13 13 12 10 11 12 12 12 11 11 9 12 12 12 12 13 11 12 12 11 10 10 13 12 11 11 8 6 4 3 3
5 6 6 5 5 7 8 9 9 9 9 10 10 10 11 12 11 11 11 12 12 11 10 11 10 8 10 13 13 12 11 11 10 9 10 10 9 11 8 6 5 4 3 2 1
4 4 5 4 6 7 8 8 9 9 9 9 9 10 11 10 9 10 11 11 9 9 9 9 7 6 8 12 8 8 10 10 9 8 7 8 10 8 5 4 2 2 1 1 0
3 5 3 4 6 8 8 9 8 8 9 9 9 9 9 9 9 9 9 9 7 7 6 6 5 6 7 9 10 8 7 8 6 6 7 8 7 7 6 4 2 2 2 1 1
2 5 5 4 4 6 8 8 8 7 7 7 8 8 8 7 8 8 9 9 7 6 6 7 5 6 7 8 8 6 6 7 7 7 6 7 7 8 9 8 4 3 2 1 1
1 2 1 4 6 6 6 6 7 7 6 6 7 8 7 6 7 5 6 6 6 7 6 6 4 5 3 5 5 5 6 7 7 7 6 7 7 10 6 3 3 3 2 2 2
-0 0 1 2 3 4 5 6 6 6 4 4 6 5 4 5 4 2 2 3 3 3 3 4 3 3 2 4 4 2 4 5 6 7 7 6 5 0 2 2 2 1 1 1 1

GFSSW_850_temp_024.txt.gz
Temp
17 17 17 17 17 17 17 18 18 18 18 18 19 19 19 19 20 20 20 20 20 20 20 20 19 18 18 19 19 19 18 19 21 23 24 23 23 22 22 22 22 22 22 23 22
16 16 17 17 17 17 17 18 18 18 18 18 18 19 19 19 20 20 20 20 20 20 19 19 18 18 19 19 19 19 18 21 23 23 21 23 23 22 22 22 22 23 23 24 22
16 16 16 16 17 17 17 18 18 18 18 18 19 19 19 19 20 20 20 20 20 20 19 18 18 19 19 20 20 20 18 21 21 22 21 20 20 21 21 18 21 22 22 22 22
16 16 16 16 16 17 17 17 17 18 18 18 18 18 18 18 19 20 20 20 20 19 19 18 18 18 19 19 20 19 20 21 21 21 20 19 19 19 20 21 21 21 21 21 21
15 16 16 16 16 16 16 16 17 17 17 18 18 18 17 17 18 20 19 19 19 19 18 17 18 19 18 20 21 19 19 20 20 20 20 20 18 17 19 20 20 21 21 21 21
15 15 15 15 15 16 16 16 16 17 17 17 17 17 16 16 18 19 19 19 18 18 17 17 19 19 19 19 18 20 18 18 19 19 19 19 18 19 20 20 21 21 22 21 21
14 14 14 14 15 15 15 16 16 16 17 17 17 17 16 17 18 18 18 18 18 18 16 17 17 17 19 18 18 18 16 17 19 20 19 19 16 17 21 21 21 21 21 21 21
14 14 14 14 14 14 15 15 16 16 17 17 17 17 16 17 17 17 17 17 16 16 16 16 16 16 16 18 18 17 16 15 19 20 17 18 15 18 21 20 20 20 20 20 20
13 13 13 13 13 14 14 15 15 16 16 16 16 16 17 16 17 17 16 15 15 15 16 16 15 16 17 15 15 16 15 17 18 21 16 16 16 19 20 20 19 20 20 20 20
12 12 12 12 13 13 14 14 15 16 16 16 15 14 16 16 16 16 16 15 14 14 14 14 15 14 14 14 14 16 16 17 16 18 18 16 15 17 19 19 19 20 20 20 15
11 11 12 12 12 12 13 14 15 15 14 15 15 16 16 16 15 14 14 14 14 14 14 15 14 13 15 16 17 16 16 15 16 18 16 16 16 16 18 18 18 18 20 15 13
11 11 11 11 11 12 12 12 12 12 12 15 16 15 14 14 14 12 13 14 14 14 15 13 13 16 17 17 16 15 14 14 16 17 16 15 14 16 17 17 19 19 16 13 11
11 11 11 11 11 12 12 12 12 12 11 14 14 13 13 12 13 13 13 14 14 14 14 14 16 17 17 16 15 15 14 15 15 15 15 15 14 15 17 19 15 14 12 10 9
11 10 10 10 11 11 11 12 12 11 12 14 13 11 12 12 12 12 12 13 15 15 15 15 15 15 15 14 15 14 16 16 14 14 13 14 12 16 16 16 13 11 10 9 8
10 9 10 10 10 10 11 12 12 11 12 15 12 12 12 12 12 11 11 12 13 15 14 15 13 14 14 15 16 15 13 14 14 12 11 13 11 16 16 14 11 10 9 8 6
9 9 9 9 10 10 11 11 11 12 11 14 12 13 13 13 12 11 11 12 12 13 14 13 13 14 15 15 15 13 13 13 12 12 9 14 14 14 15 13 11 10 9 7 6
9 9 9 9 9 10 11 11 11 11 15 14 14 14 14 14 13 12 12 11 12 13 13 14 13 13 14 13 13 12 12 9 10 8 9 13 12 14 16 13 12 9 8 6 5
9 8 8 8 9 9 9 11 9 12 14 14 14 14 14 14 14 13 14 13 14 14 13 12 13 12 12 14 13 12 13 9 8 8 10 12 9 13 13 11 10 8 6 5 4
8 8 7 7 8 9 9 9 10 12 14 15 13 13 14 13 14 13 13 13 14 14 13 13 13 12 13 13 13 13 11 13 9 6 6 10 13 14 11 8 8 7 6 5 4
7 7 7 7 7 8 8 9 11 13 12 13 13 14 13 14 12 12 13 12 11 11 12 11 10 13 11 12 11 12 11 10 9 8 6 10 11 12 10 8 7 5 5 4 4
6 6 6 6 6 7 6 8 11 12 11 11 12 12 13 12 13 12 12 11 12 10 11 10 9 10 11 11 11 10 10 10 10 8 7 8 9 9 7 7 5 4 4 3 3
5 4 5 5 5 6 6 9 10 10 10 10 10 10 10 11 11 11 11 11 11 10 10 10 9 5 8 10 10 9 9 9 7 7 8 9 9 7 6 5 5 4 4 3 2
3 4 4 4 5 6 8 9 9 9 9 9 9 9 10 10 9 10 10 10 9 9 8 8 6 4 5 9 8 9 9 8 8 5 6 6 7 6 5 4 4 4 4 3 1
2 2 3 5 5 7 7 8 8 9 9 9 9 9 9 8 9 9 9 8 8 7 6 7 6 4 4 7 8 5 6 6 6 5 5 5 6 8 7 5 4 3 2 2 1
4 4 5 3 4 5 6 8 8 7 8 8 8 8 8 7 8 8 8 8 7 6 6 6 3 4 5 6 5 4 4 5 5 5 4 5 6 7 8 6 4 4 2 2 1
2 2 2 4 5 4 5 6 7 7 7 6 6 8 7 7 6 4 4 5 6 6 5 5 0 2 -0 3 3 3 3 3 4 4 4 5 5 7 3 3 3 3 2 2 1
0 1 2 4 3 4 4 5 6 7 7 6 6 6 6 4 2 2 2 3 3 3 3 2 -0 -3 -2 2 0 -3 1 2 3 4 4 3 2 -2 0 2 1 1 1 0 0

GFSSW_850_temp_027.txt.gz
Temp
16 17 17 17 17 17 17 18 18 18 18 18 18 19 19 19 19 20 20 20 20 20 20 19 19 19 18 18 19 19 14 15 19 20 20 22 21 22 22 22 22 22 22 22 22
16 16 16 17 17 17 17 17 18 18 18 18 18 19 19 19 20 21 20 19 19 19 19 19 19 18 18 19 19 17 13 17 19 19 19 19 19 19 20 20 21 21 22 22 21
16 16 16 16 17 17 17 17 18 18 18 18 18 18 18 19 19 20 20 20 20 20 19 18 18 18 18 19 19 18 15 17 20 20 20 19 19 20 19 16 20 21 21 21 21
16 16 16 16 16 17 17 17 17 17 17 18 18 18 18 18 18 20 20 20 19 19 19 19 18 18 17 17 19 17 19 19 19 20 19 19 19 18 18 19 19 20 20 21 21
15 16 16 16 16 16 17 17 17 17 17 17 18 18 17 17 18 19 19 19 19 19 18 18 17 18 17 18 18 17 18 19 19 19 19 19 18 17 19 21 20 20 21 21 21
15 15 15 15 15 16 16 16 16 17 17 17 17 17 17 16 18 18 18 19 18 18 18 17 18 18 18 18 17 17 17 17 18 19 18 17 17 18 20 21 20 21 21 20 20
15 15 15 15 15 15 15 15 16 16 16 17 17 17 17 18 18 18 18 18 18 18 17 17 17 17 16 17 17 17 16 14 16 17 16 18 16 16 20 20 20 21 21 20 18
14 14 14 14 14 14 14 15 15 16 16 16 17 17 17 17 17 17 17 16 16 16 17 16 16 17 16 17 16 16 15 14 16 18 17 17 15 16 21 20 20 20 19 18 16
14 13 13 13 13 13 14 14 15 15 16 16 16 15 16 16 16 16 16 16 16 16 15 15 16 16 16 13 12 13 13 14 15 17 15 16 14 17 20 19 19 19 18 15 14
13 13 12 12 12 12 13 14 15 15 15 15 14 14 15 16 16 16 16 15 15 15 14 15 15 11 10 11 12 13 13 14 14 16 16 14 12 13 18 19 17 17 14 12 11
12 12 12 12 12 12 13 14 14 14 14 16 15 15 16 15 15 15 15 14 14 14 12 14 11 10 12 11 13 15 14 13 13 15 14 14 13 13 16 17 15 14 10 9 9
11 11 11 11 11 12 12 13 13 13 13 15 16 15 14 14 14 13 14 14 13 12 13 11 10 12 13 13 14 14 13 12 13 15 15 13 13 13 14 14 15 11 9 8 8
11 11 11 11 11 11 12 12 13 12 11 14 14 13 13 13 13 13 13 13 13 12 11 10 13 13 14 14 14 14 13 12 13 13 13 13 11 13 14 11 9 9 8 7 7
10 10 10 10 10 11 11 12 12 12 9 12 12 12 12 12 12 12 12 13 13 12 11 11 13 14 13 12 13 12 13 13 14 12 11 13 9 13 13 10 8 7 6 6 6
10 10 10 9 10 10 11 12 12 12 10 13 11 12 12 12 12 11 11 12 12 13 13 13 12 13 13 13 13 12 13 13 13 11 11 11 9 10 10 9 7 6 6 5 5
9 10 9 9 10 10 11 11 11 11 10 12 11 11 11 12 11 11 11 11 12 12 13 12 13 13 13 14 14 12 13 12 11 9 8 10 10 10 12 10 7 6 5 5 5
9 9 10 9 10 10 10 10 10 10 14 11 11 11 11 11 10 10 10 10 10 11 11 12 12 12 13 13 11 12 10 8 8 6 8 10 10 11 12 10 8 4 4 4 4
9 9 9 9 9 9 9 9 9 10 11 13 13 12 12 12 12 11 11 11 10 13 10 11 11 11 12 12 11 10 11 7 7 7 7 10 9 11 6 5 4 4 4 4 4
8 8 8 8 8 8 8 9 9 10 12 12 12 11 11 13 13 11 10 10 10 11 11 10 11 11 12 12 12 12 10 11 8 1 4 8 10 7 6 5 4 4 4 4 3
8 7 7 7 8 7 7 8 10 12 12 12 12 11 10 11 11 10 11 11 10 11 11 10 9 10 10 11 11 11 11 8 6 5 4 7 9 9 6 4 4 3 4 4 4
8 6 6 6 7 6 6 7 9 11 12 11 11 11 11 12 11 10 11 11 10 9 10 9 9 8 10 9 9 9 9 9 8 7 5 5 8 8 6 4 3 3 4 5 4
7 5 5 5 5 5 5 7 10 10 10 10 10 9 10 10 10 9 9 10 10 10 8 9 7 4 7 9 8 9 8 8 6 6 4 7 9 7 4 4 5 4 5 5 4
5 3 4 5 4 5 6 7 8 8 8 8 8 8 9 9 8 9 9 8 9 8 8 8 5 1 4 7 7 8 8 7 7 4 5 6 6 5 4 4 5 5 5 4 2
5 3 3 4 4 5 6 6 7 9 8 9 8 8 8 7 8 8 8 7 8 6 7 8 5 3 5 5 5 4 4 5 6 3 1 3 3 6 6 3 4 5 4 3 2
3 2 4 4 4 4 6 6 7 7 7 8 7 7 7 6 7 7 8 5 6 6 6 6 2 4 4 4 4 3 3 4 3 4 2 5 4 5 6 4 5 3 3 2 1
1 1 3 3 4 4 4 4 6 7 6 6 6 7 6 6 6 4 5 5 5 4 5 4 0 1 -1 3 3 2 3 3 3 3 3 3 3 5 3 3 2 2 2 1 1
1 2 3 2 2 4 4 5 5 6 6 6 6 5 5 2 3 2 3 2 2 2 2 2 -1 -4 -3 1 -1 -2 1 2 3 3 2 1 2 -3 -0 1 0 1 1 1 1

GFSSW_850_temp_030.txt.gz
Temp
16 17 17 17 17 17 17 17 18 18 18 18 19 19 19 19 19 20 20 20 20 19 19 19 19 19 19 19 18 18 13 14 18 18 19 20 18 21 21 21 20 21 21 21 21
16 16 16 17 17 17 17 17 18 18 18 18 18 19 19 19 20 20 20 19 19 19 19 19 19 18 18 18 18 16 12 15 18 19 18 19 19 19 19 19 21 20 21 20 20
16 16 16 16 17 17 17 17 17 18 18 18 18 18 18 19 19 19 20 20 20 19 19 18 18 18 18 18 18 16 14 15 18 18 18 18 18 19 18 16 20 20 19 19 20
16 16 16 16 17 17 17 17 17 17 17 17 18 18 18 18 18 20 20 19 19 19 19 18 17 17 17 16 18 17 17 18 19 19 18 17 18 18 18 20 20 19 19 19 20
15 15 16 16 16 16 16 16 16 17 17 17 17 17 17 17 19 19 19 19 19 18 18 18 17 17 16 16 17 16 16 18 18 19 18 18 17 17 18 20 20 20 20 19 19
15 15 16 16 16 16 16 16 16 16 17 17 17 17 16 16 18 18 18 18 18 18 17 17 17 17 17 17 16 16 16 17 18 18 17 16 16 17 20 20 20 20 18 18 18
15 15 15 15 15 15 15 15 15 16 16 16 17 17 16 17 18 17 17 18 18 17 17 17 17 17 16 16 17 17 15 14 16 16 16 17 16 15 20 19 19 18 17 18 18
14 15 15 14 14 14 14 15 15 15 16 16 16 16 16 17 17 17 17 16 17 17 17 16 16 16 16 16 16 15 14 13 16 16 17 16 14 16 20 20 19 16 16 15 14
14 14 14 13 13 14 14 14 15 15 15 15 15 15 16 16 16 16 16 16 16 15 15 15 16 16 15 12 11 12 13 12 14 16 16 16 14 16 19 18 16 15 12 11 10
13 13 13 13 13 13 13 14 14 15 15 14 14 14 15 16 16 16 16 15 15 15 14 15 15 10 9 10 12 13 12 12 13 15 15 14 12 12 17 16 14 13 9 9 9
13 13 12 12 12 12 13 13 14 14 13 16 16 15 15 15 15 15 15 14 14 14 12 13 10 10 11 11 13 13 13 12 12 13 13 12 12 13 15 15 12 8 7 6 6
11 11 11 11 11 11 12 13 13 13 13 15 15 14 14 14 14 13 14 14 13 12 11 10 10 12 12 11 11 12 12 11 12 12 14 12 12 12 12 10 9 7 6 5 5
11 10 11 11 11 11 12 12 13 13 12 13 14 13 13 13 13 13 13 13 12 10 10 10 13 12 12 12 12 12 12 12 12 12 12 12 11 12 8 7 7 5 5 5 5
10 10 10 10 10 11 11 12 12 12 9 11 11 12 12 12 12 12 12 13 12 11 10 10 12 13 12 12 12 11 12 12 12 11 11 12 9 10 10 6 5 4 4 4 4
10 10 10 9 10 11 11 12 12 12 10 12 10 11 11 12 11 11 11 12 11 12 11 12 12 12 12 12 11 12 12 13 13 11 10 10 9 9 7 7 4 3 3 4 4
10 9 9 9 9 11 11 11 12 11 9 11 10 10 10 11 11 10 11 11 11 12 12 11 12 12 12 12 12 12 12 9 7 7 7 9 9 9 10 9 4 3 3 3 3
9 9 9 9 10 10 10 11 9 9 12 10 10 9 10 10 9 9 9 9 9 9 10 11 11 12 12 12 11 10 9 8 7 6 8 8 7 9 6 7 5 2 3 3 4
9 9 9 9 9 10 10 9 9 9 9 11 11 10 10 10 10 9 9 9 8 10 9 10 11 10 11 11 11 9 9 7 7 6 7 7 9 9 3 3 4 4 4 4 4
9 9 9 9 9 9 9 9 10 10 10 11 11 11 10 11 11 10 8 9 10 8 11 9 10 11 11 12 11 10 9 10 7 -1 3 7 7 5 4 2 2 3 4 4 5
9 8 8 8 8 8 8 9 9 11 11 12 11 11 9 11 11 9 8 9 10 10 11 10 10 10 10 11 10 10 9 8 5 5 4 6 7 7 4 3 2 2 3 4 4
8 7 6 7 7 7 8 7 8 11 12 11 11 10 10 10 10 8 10 10 9 9 10 9 9 8 9 8 8 8 8 8 7 5 4 3 6 7 5 4 3 3 5 5 5
7 6 6 7 6 5 6 7 9 9 10 9 9 10 9 10 10 9 9 10 10 9 8 8 7 3 7 8 8 9 7 7 5 5 3 5 8 6 5 4 4 5 6 5 5
7 5 5 6 7 5 6 7 8 7 7 8 9 9 9 9 10 8 8 8 9 7 7 7 4 1 4 6 7 7 6 6 5 3 2 4 6 4 4 3 5 5 5 5 4
5 3 3 4 4 6 6 6 7 7 8 8 8 8 8 8 8 8 7 7 7 7 8 8 4 4 6 6 5 5 5 5 5 2 2 4 4 5 3 2 3 5 6 5 4
5 3 4 4 4 5 6 6 6 6 7 6 6 8 7 6 6 6 6 5 5 6 6 6 5 3 4 4 4 4 4 3 4 4 3 5 4 5 4 3 4 4 4 3 2
2 2 2 3 5 5 5 5 6 6 6 6 6 7 7 7 6 5 6 5 5 4 5 4 2 2 0 3 3 2 3 2 3 3 3 3 3 5 5 3 2 3 3 2 2
0 0 2 1 2 4 4 4 5 6 5 7 7 5 5 6 5 4 4 4 4 3 3 3 -0 -2 -1 -1 -1 -2 -0 2 4 2 2 2 2 -2 0 1 2 2 1 1 1

GFSSW_850_temp_033.txt.gz
Temp
17 17 17 17 17 17 17 17 18 18 18 18 18 18 19 19 19 20 20 20 19 19 19 19 19 19 19 19 18 18 12 13 17 18 18 19 18 20 20 20 20 20 20 20 20
16 16 17 17 17 17 17 17 17 17 18 18 18 18 19 19 19 20 20 19 19 19 19 19 19 19 19 18 18 16 11 15 16 17 18 18 18 18 19 19 19 19 19 19 19
16 16 16 17 17 17 17 17 17 17 17 18 18 18 18 18 19 19 20 19 19 19 19 18 18 18 18 17 17 15 14 14 17 18 18 17 17 18 17 16 19 19 18 19 18
16 16 16 16 16 16 16 17 17 17 17 17 17 18 18 18 17 19 19 19 19 19 19 18 17 17 16 16 17 16 16 17 18 17 17 17 18 18 17 19 19 18 18 18 18
15 16 16 16 16 16 16 16 16 16 17 17 17 17 17 17 18 19 19 19 19 19 18 18 17 17 15 16 16 15 16 17 18 18 17 17 16 16 18 20 18 18 17 18 18
15 15 15 16 16 16 16 16 16 16 16 17 16 16 16 15 18 18 18 18 18 18 17 17 17 17 16 16 16 16 16 16 17 18 16 15 15 16 20 20 18 17 17 17 16
15 15 15 15 15 15 15 15 15 15 16 16 16 16 15 17 17 17 17 17 17 17 17 17 17 17 16 16 16 16 15 13 15 16 15 16 15 14 20 18 17 16 16 16 16
14 14 14 14 14 14 15 15 15 15 15 15 16 15 16 17 17 16 17 17 17 16 16 16 16 16 16 15 15 14 13 13 15 15 16 16 14 16 19 17 15 14 12 12 12
14 14 14 14 14 14 14 14 14 14 15 15 14 15 16 15 16 16 16 16 16 15 15 15 15 15 15 11 11 10 12 12 13 15 15 15 14 15 18 16 13 9 9 9 10
13 13 13 13 13 13 13 13 14 14 14 14 13 14 15 15 16 16 15 15 15 14 14 15 14 9 8 10 11 12 11 11 12 15 14 14 12 12 16 14 10 7 6 7 8
13 13 12 12 12 12 12 12 13 13 13 15 15 15 15 15 15 15 14 14 14 14 12 12 10 10 10 10 13 13 11 12 12 13 13 12 11 12 13 8 5 5 5 5 5
12 12 11 11 11 11 11 12 13 13 13 15 14 14 14 14 14 14 14 14 13 11 10 10 10 12 11 11 11 11 12 11 11 11 12 11 11 11 6 5 5 4 4 4 4
11 11 10 10 10 11 11 12 13 13 12 13 14 14 13 13 13 13 13 13 12 9 9 10 12 11 12 11 11 11 10 11 11 11 11 11 10 11 5 4 4 4 4 4 4
10 10 9 9 9 10 11 12 12 12 9 10 11 12 12 12 12 12 12 13 11 10 9 9 11 12 11 11 11 11 10 11 12 11 10 11 9 9 6 4 3 3 3 4 4
10 10 9 9 9 10 11 12 12 12 10 11 10 11 11 12 10 10 11 11 10 10 10 11 11 10 10 11 11 11 10 11 12 10 9 9 9 8 5 5 2 2 2 3 4
10 9 9 8 9 11 11 11 12 11 9 10 10 9 10 11 10 10 11 11 11 11 11 10 12 11 11 10 10 10 10 8 6 7 7 8 9 8 7 8 3 2 2 3 4
9 9 8 8 8 9 10 10 9 10 12 10 9 8 9 9 8 9 8 8 8 9 9 11 11 11 12 11 11 10 9 8 7 6 8 7 7 8 5 3 4 2 2 3 4
9 8 8 8 8 9 9 8 9 11 9 10 9 8 9 9 9 8 7 8 8 9 7 9 11 10 10 11 10 8 9 7 7 6 7 7 7 9 3 2 3 4 4 3 4
8 8 9 9 8 9 8 9 10 9 10 10 10 9 9 9 9 9 7 8 8 7 11 8 10 10 10 10 11 9 8 9 6 -3 3 7 7 4 2 2 2 2 3 4 4
9 8 8 9 9 9 8 10 10 11 11 11 11 10 9 9 9 8 7 9 10 8 10 10 10 9 10 10 9 9 8 8 5 5 4 7 6 8 3 2 1 1 2 4 4
8 7 8 9 9 8 9 9 9 10 11 11 11 10 10 10 9 7 9 10 9 8 9 8 9 8 9 8 8 8 8 7 7 5 4 3 7 5 5 3 2 2 4 5 5
7 7 6 7 7 6 9 8 9 9 9 10 10 10 10 9 9 8 8 9 10 9 8 8 7 5 7 7 5 8 7 7 7 6 3 4 9 4 4 4 3 4 7 7 5
7 5 5 6 8 6 5 7 7 7 8 8 8 9 9 9 9 8 7 7 8 8 7 7 5 2 5 7 6 6 6 6 4 2 1 4 5 4 3 3 5 6 6 5 6
6 4 4 4 5 6 6 6 7 6 6 7 7 8 8 8 8 7 7 6 6 7 8 9 4 6 9 7 5 5 5 4 4 3 3 6 6 4 3 3 3 4 5 5 6
6 4 4 4 4 5 6 6 7 6 6 6 5 7 7 7 7 7 6 5 5 6 6 6 4 3 5 5 4 4 4 3 4 5 6 6 5 5 4 2 4 5 5 4 5
2 3 2 4 6 5 5 6 6 7 6 5 6 7 7 6 7 5 5 5 6 4 4 3 3 2 1 3 3 3 3 3 4 4 3 4 4 4 4 5 3 3 3 2 3
1 0 1 3 5 5 5 6 6 7 5 5 5 5 6 6 6 5 6 5 5 3 3 3 2 2 4 0 1 1 1 3 4 2 3 2 4 -2 1 1 2 2 2 2 2

GFSSW_850_temp_036.txt.gz
Temp
16 16 16 16 17 16 17 17 17 17 18 18 18 18 19 19 19 20 20 19 19 19 19 19 19 19 19 19 18 18 11 13 17 15 18 17 17 18 19 19 20 20 19 18 18
16 16 16 16 16 17 17 17 17 17 18 18 18 18 18 19 19 19 19 19 19 19 19 19 19 19 18 18 17 15 11 14 15 17 17 17 17 18 18 18 18 18 19 18 18
15 16 16 16 16 16 17 17 17 17 17 18 18 18 18 18 19 19 19 19 19 19 19 18 18 18 17 17 16 14 14 14 17 17 17 16 17 17 17 16 17 17 18 18 18
15 16 16 16 16 16 16 17 17 17 17 17 17 17 17 18 17 19 19 19 19 19 18 18 18 18 15 16 16 16 15 16 17 17 17 16 17 17 16 17 16 16 17 17 17
15 15 15 16 16 16 16 16 16 16 16 16 17 17 17 17 18 18 19 19 19 18 18 18 17 17 15 15 15 15 15 16 17 16 16 16 16 16 17 16 16 16 16 16 16
15 15 15 15 15 15 15 16 16 16 16 16 16 16 16 15 18 18 18 18 18 18 17 17 17 17 16 15 15 15 15 15 17 16 16 15 15 16 15 16 17 16 16 14 13
15 15 15 15 15 15 15 15 15 15 15 16 16 16 16 17 17 17 17 17 17 17 17 17 16 16 16 15 15 15 14 12 14 15 15 15 16 13 16 16 16 15 14 13 12
14 14 14 14 14 14 14 14 14 15 15 15 15 15 16 17 17 16 17 17 17 16 16 16 16 16 16 15 14 14 12 13 15 14 15 15 14 16 16 15 12 12 11 11 11
14 14 14 14 14 14 14 14 14 14 14 14 14 14 15 15 15 15 16 16 16 15 15 15 15 15 14 11 11 10 12 12 12 14 14 15 14 15 14 14 9 8 8 9 8
14 14 13 13 13 13 13 13 13 14 14 14 13 14 15 15 15 15 15 15 15 14 14 14 14 9 8 10 11 11 11 11 12 14 13 13 12 12 11 12 6 6 6 7 8
13 13 13 13 12 12 12 12 13 13 13 15 15 15 15 15 15 14 14 14 14 14 11 12 10 10 10 10 12 12 11 12 12 12 13 11 10 11 7 6 4 4 5 5 6
12 12 12 12 11 11 11 11 13 13 12 14 14 14 14 14 14 14 14 14 13 11 10 9 9 11 11 10 11 12 11 10 10 11 11 11 10 7 5 4 4 4 4 4 5
12 12 10 10 10 10 11 12 12 12 11 13 14 14 13 14 14 14 13 13 11 9 9 9 12 10 11 10 10 9 9 10 11 11 11 11 9 7 3 3 3 3 3 4 5
10 10 9 8 8 10 10 12 11 12 9 10 11 12 12 13 12 13 12 13 11 10 8 9 10 11 10 10 10 10 9 10 11 10 9 10 9 9 5 3 2 2 3 4 4
10 9 8 8 9 10 11 11 11 11 9 11 9 10 11 12 10 9 10 11 9 9 9 10 9 9 10 10 10 11 9 9 10 9 9 9 8 7 4 4 2 1 2 3 4
10 9 8 7 8 10 11 11 11 10 9 9 9 9 9 10 9 9 10 11 11 10 10 10 11 9 10 9 10 8 9 7 5 6 6 8 9 8 6 6 2 2 2 3 4
9 9 8 7 8 9 10 10 9 9 12 9 8 8 9 8 8 8 8 8 8 8 8 10 10 11 11 9 10 9 9 8 7 6 7 6 7 8 7 4 4 2 2 3 3
9 8 8 8 8 9 9 8 9 11 10 9 8 7 9 8 8 7 7 7 8 8 7 8 9 9 9 10 9 8 9 7 7 6 7 6 7 8 3 2 3 4 4 3 4
9 8 8 8 7 8 7 9 10 9 10 9 9 8 8 8 8 7 6 7 8 7 10 8 10 9 10 9 10 8 8 8 6 -3 2 7 7 6 2 1 1 1 3 3 4
9 8 8 9 8 8 8 9 9 10 10 10 11 9 8 8 8 7 6 8 9 7 9 10 10 9 9 9 8 9 7 8 5 6 3 7 7 8 4 2 0 0 2 3 4
8 8 8 8 8 8 9 9 10 11 12 11 12 10 9 8 8 7 8 9 8 6 9 8 10 8 8 8 7 7 8 6 7 5 5 4 7 5 5 2 1 1 3 4 5
7 7 8 8 8 8 9 9 10 9 11 10 10 11 9 8 8 7 8 9 9 8 8 8 7 4 7 6 5 7 7 7 8 6 2 4 8 3 4 3 3 3 5 5 5
7 6 6 7 9 8 7 9 8 8 9 8 9 10 9 9 10 8 7 7 8 8 8 7 5 3 5 7 6 6 6 5 4 3 2 4 7 3 3 2 4 4 5 5 5
6 5 5 5 5 7 7 7 7 6 7 7 8 8 8 9 8 7 7 6 6 7 8 9 5 6 8 7 6 5 5 4 5 2 4 7 8 5 4 3 2 4 5 6 6
5 5 6 5 5 6 6 6 7 6 5 6 6 7 9 7 8 7 6 5 5 6 6 7 5 4 5 6 5 5 5 3 4 7 7 8 6 4 5 3 4 5 5 4 4
3 3 4 4 7 6 6 5 5 6 6 5 6 6 7 6 7 4 6 5 6 4 5 4 3 3 2 3 3 3 3 3 4 4 3 4 4 5 6 6 5 5 5 5 5
2 1 2 3 4 5 6 5 6 6 5 6 6 6 6 6 5 4 3 4 5 4 3 4 2 2 5 -0 1 4 3 2 3 2 4 4 6 -0 1 2 3 4 4 4 4

GFSSW_850_temp_042.txt.gz
Temp
16 16 16 16 16 16 16 16 17 17 17 17 18 18 18 19 19 19 20 20 19 19 19 19 19 19 19 19 18 18 22 21 20 20 21 19 21 18 19 19 18 17 17 17 18
15 15 16 16 16 16 16 16 17 17 17 17 18 18 18 18 19 19 19 19 19 19 19 19 19 19 18 17 17 19 21 21 20 20 21 19 19 19 19 19 18 16 16 16 17
15 15 15 15 15 16 16 16 16 17 17 17 17 18 18 18 19 19 19 19 18 18 18 19 19 19 18 17 16 17 21 18 18 18 18 18 18 17 19 20 18 17 15 15 16
15 15 15 15 15 15 16 16 16 16 17 17 17 17 17 18 19 19 19 19 19 18 18 18 19 18 19 19 16 19 17 17 17 16 16 18 17 18 17 17 15 15 15 15 16
15 14 15 15 15 15 15 15 16 16 16 16 16 17 17 17 18 18 19 19 19 18 18 18 18 17 19 17 16 18 17 16 16 16 16 16 17 18 16 14 14 14 14 15 15
14 14 14 14 14 15 15 15 15 16 16 16 16 16 16 17 18 18 18 18 18 18 18 18 18 17 16 17 18 16 16 17 16 16 15 16 17 15 12 11 12 12 14 14 15
14 14 14 14 14 14 15 15 15 15 15 15 16 16 16 17 17 17 17 17 17 17 17 17 17 17 16 16 14 15 18 18 17 16 17 15 16 16 13 10 11 12 12 12 12
13 13 14 14 14 14 14 14 15 15 15 15 15 15 16 17 17 16 17 16 16 16 16 17 16 17 15 14 15 17 16 18 17 15 15 15 20 15 11 12 10 8 7 8 10
13 13 13 13 14 14 14 14 14 14 14 14 14 14 15 15 15 16 15 15 16 15 15 16 16 14 15 17 17 16 19 17 18 15 16 16 18 14 11 12 11 9 7 7 9
13 13 13 13 13 13 13 13 13 13 13 13 13 14 15 15 15 15 14 14 15 15 14 15 14 16 15 17 19 18 17 16 18 17 15 17 18 14 10 11 10 8 7 6 7
13 12 12 12 12 12 12 12 12 13 12 15 15 15 15 14 15 14 14 14 14 14 16 12 16 16 18 18 17 17 17 18 17 15 16 18 18 17 11 9 9 8 7 6 6
12 12 12 12 12 11 11 11 13 12 13 14 14 14 14 14 13 13 13 14 13 15 12 13 15 17 14 14 15 15 16 17 16 14 15 17 16 18 10 11 9 8 7 6 5
12 11 11 11 10 10 11 12 12 12 12 13 14 14 14 14 15 13 13 13 14 12 13 16 16 13 14 13 14 15 15 17 16 13 13 13 15 16 10 6 6 6 6 5 5
11 9 7 7 7 9 9 12 11 12 14 14 11 12 12 14 13 14 13 13 12 14 13 15 13 12 13 14 15 15 14 14 14 14 15 13 17 15 13 9 6 5 5 5 4
9 8 7 7 7 8 12 11 11 12 12 13 9 10 10 13 11 9 11 12 13 12 13 15 11 12 13 14 14 15 12 13 13 14 13 13 14 17 9 10 8 6 5 5 4
9 8 7 7 7 10 10 11 10 12 12 10 9 9 10 10 9 8 10 11 10 11 11 13 10 12 14 10 12 10 11 11 11 12 12 14 14 17 13 13 11 6 5 4 3
8 8 7 7 7 9 9 9 11 12 13 10 10 9 11 9 9 10 10 11 13 12 12 12 11 11 10 11 10 12 13 13 12 12 13 9 12 17 15 10 10 7 5 4 3
9 8 8 8 8 8 8 9 9 15 15 9 9 9 10 10 10 9 10 11 11 12 12 13 13 11 11 14 12 11 14 14 12 12 14 7 12 15 9 6 5 7 5 4 3
8 8 8 8 7 8 7 9 10 13 15 11 9 10 10 9 10 9 10 12 12 11 13 12 12 10 9 10 13 11 11 12 9 3 11 14 12 12 6 5 4 5 4 3 3
7 7 8 8 7 7 8 8 10 14 12 12 13 13 11 10 10 10 10 11 11 11 12 13 13 9 8 10 9 11 12 11 11 11 12 13 12 17 9 8 5 4 4 4 3
6 7 8 8 7 7 8 8 11 12 12 12 13 13 13 11 12 10 12 10 12 10 12 11 12 9 9 10 12 10 10 11 12 12 13 14 15 13 13 11 7 6 5 4 3
5 7 8 8 7 8 7 9 10 11 10 12 12 14 12 11 11 11 12 14 10 10 10 11 9 9 10 8 7 12 13 12 13 9 9 10 14 8 9 9 8 7 5 4 3
5 6 7 7 8 8 8 8 9 10 11 12 11 12 12 12 11 11 11 10 10 11 11 10 9 9 9 8 6 8 9 11 12 8 10 11 14 6 6 6 6 6 5 3 3
5 4 6 6 8 8 7 8 8 9 10 11 12 10 10 11 12 12 10 8 8 11 11 12 9 10 13 14 12 9 10 9 11 11 13 11 13 8 8 7 5 4 5 4 4
5 5 6 6 6 8 8 8 8 8 8 9 9 10 11 9 10 10 12 7 6 7 8 10 8 10 12 12 10 10 11 9 10 12 12 14 12 11 11 9 8 8 6 4 3
5 5 4 5 6 7 7 7 8 8 7 8 8 9 9 10 10 10 10 10 10 6 6 6 9 9 9 10 8 8 9 9 10 11 12 13 12 12 10 8 7 6 4 4 4
2 4 5 4 6 6 7 7 6 7 6 7 7 8 7 8 7 5 5 8 7 7 6 6 7 6 8 9 6 5 7 9 10 11 12 11 11 6 6 7 7 6 5 6 5

GFSSW_850_temp_045.txt.gz
Temp
15 15 16 16 16 16 16 17 17 17 17 17 18 18 18 19 19 19 18 20 20 20 19 19 19 19 19 19 19 20 24 24 24 24 24 22 23 21 20 22 20 18 18 18 18
15 15 15 15 16 16 16 16 17 17 17 17 17 18 18 18 19 19 19 19 19 19 19 18 19 19 21 20 20 22 23 24 24 24 24 22 22 22 22 22 20 18 17 17 17
15 15 15 15 15 16 16 16 16 17 17 17 17 17 18 18 19 18 19 19 19 19 19 19 18 19 21 20 20 21 23 22 21 21 22 22 21 20 22 22 21 21 15 16 15
14 14 15 15 15 16 16 16 16 16 16 17 17 17 17 18 20 19 19 19 19 19 18 18 19 21 21 21 19 21 20 21 19 18 19 20 20 21 20 18 15 14 15 14 14
14 14 14 15 15 15 16 16 16 16 16 16 17 17 17 17 19 19 19 19 19 19 17 18 19 20 21 21 19 20 20 19 18 17 18 17 19 20 19 14 14 14 14 13 13
14 14 14 14 14 15 15 15 15 16 16 16 16 16 16 18 18 18 18 18 18 18 18 18 19 19 20 20 20 19 19 20 19 18 18 18 20 17 19 14 13 12 12 12 13
13 13 14 14 14 14 14 15 15 15 15 16 15 16 16 17 18 18 17 17 17 17 16 17 17 18 19 19 17 18 19 21 20 19 19 17 18 17 17 13 13 12 11 11 13
13 13 13 13 14 14 14 14 14 14 15 15 15 15 16 17 17 17 17 17 17 17 17 17 17 17 18 16 18 19 19 20 21 18 17 17 21 20 14 14 14 13 12 12 12
13 13 13 13 13 13 13 13 14 14 14 14 14 14 16 16 16 16 16 15 16 16 16 16 16 17 16 19 20 20 21 21 21 18 18 18 21 17 15 15 15 14 12 10 9
12 12 12 12 12 12 13 13 13 13 13 13 13 14 15 15 15 15 15 15 14 15 15 15 17 18 18 19 19 21 20 21 20 19 18 19 19 17 15 15 16 14 12 10 9
12 12 12 12 12 12 12 12 12 12 12 15 15 16 15 15 15 14 14 14 14 15 17 16 17 18 19 20 21 20 20 20 22 19 17 19 20 21 16 14 15 14 12 11 9
11 11 11 11 11 11 11 10 13 12 13 14 14 13 14 15 13 13 14 14 15 16 17 15 16 19 20 19 19 18 18 19 21 18 16 19 19 20 20 16 15 15 13 11 8
10 9 10 10 10 9 10 11 12 12 13 15 14 13 13 14 15 13 14 14 15 16 15 17 19 17 17 16 17 18 18 19 19 16 16 17 17 18 19 17 14 13 12 10 8
10 9 9 7 6 7 7 12 11 11 14 17 13 13 13 14 14 14 14 14 14 16 16 17 18 15 15 17 17 17 19 18 18 16 17 17 17 19 20 15 12 10 10 9 8
9 9 8 8 8 8 10 12 11 13 12 18 13 10 11 14 13 11 12 12 16 15 15 17 14 14 15 16 17 17 16 16 16 16 16 17 14 18 18 16 13 10 9 9 7
9 9 8 7 7 7 10 11 11 13 13 13 11 11 11 13 11 9 10 11 13 15 14 16 12 15 16 13 15 14 14 13 14 15 14 16 16 18 18 16 16 10 8 8 6
10 9 8 7 7 7 9 9 11 13 17 14 12 11 13 11 10 11 11 11 13 13 14 15 14 14 13 13 12 14 14 14 14 13 13 15 16 17 19 15 16 11 8 8 6
8 8 8 7 7 7 8 8 9 14 16 13 12 12 12 11 11 10 11 12 13 15 17 16 15 15 13 15 16 12 15 15 13 14 15 10 13 17 15 13 10 11 9 7 6
7 7 8 8 7 7 7 8 10 14 17 15 12 12 12 11 11 10 11 13 15 15 14 16 16 14 14 15 16 13 13 16 12 7 11 15 15 16 9 8 8 10 8 7 5
6 6 7 7 8 7 8 8 10 14 17 18 15 15 14 12 11 11 12 15 15 14 15 16 15 12 11 11 12 13 14 11 12 11 13 16 16 17 9 10 8 9 8 6 5
6 5 7 8 7 7 8 8 11 13 15 16 16 16 16 15 12 12 15 15 15 13 13 15 15 11 10 11 13 11 12 13 14 13 14 15 17 17 16 13 9 8 7 6 5
6 6 7 8 7 8 8 9 11 12 13 15 15 16 16 16 13 13 14 16 14 13 11 13 14 13 12 13 12 15 14 13 13 11 12 12 16 12 14 15 11 8 7 6 5
5 5 6 7 8 8 8 8 10 11 12 13 13 15 16 15 13 14 15 16 14 12 12 12 10 9 11 10 9 10 12 13 13 10 11 12 15 11 10 11 11 10 8 7 5
5 5 5 6 6 8 7 7 8 10 11 12 13 13 13 14 15 15 15 11 12 12 13 12 9 9 14 15 14 10 11 11 12 11 12 13 15 10 10 10 9 9 8 7 5
4 3 5 6 6 6 8 8 8 8 9 10 10 12 11 9 11 13 14 8 8 10 10 10 8 9 11 13 14 12 11 11 10 12 12 14 15 16 13 12 11 9 8 6 5
3 4 4 6 6 6 7 7 8 8 9 8 8 10 11 10 10 11 12 12 10 8 8 7 7 8 8 10 11 10 12 12 11 11 13 14 15 18 16 13 12 10 8 7 6
2 3 3 6 6 6 5 6 7 8 8 9 8 8 9 10 11 10 9 10 9 9 6 5 5 6 8 9 9 6 8 10 12 12 13 12 14 9 11 10 10 9 8 7 7